Time,TemperatureF,DewpointF,PressureIn,WindDirection,WindDirectionDegrees,WindSpeedMPH,WindSpeedGustMPH,Humidity,HourlyPrecipIn,Conditions,Clouds,dailyrainin,SolarRadiationWatts/m^2,SoftwareType,DateUTC
2013-07-29 00:32:00,65.0,55.0,-100.00,ENE,77,16.0,24.0,71,0.00,,,0.00,0.000000,,2013-07-29 06:32:00,
2013-07-29 00:43:00,65.0,55.0,-100.00,ENE,77,16.0,24.0,71,0.00,,,0.00,0.000000,,2013-07-29 06:43:00,
2013-07-29 00:52:00,65.0,55.0,-100.00,ENE,77,16.0,24.0,71,0.00,,,0.00,0.000000,,2013-07-29 06:52:00,
2013-07-29 01:33:00,65.0,49.0,-100.00,SE,136,9.0,22.0,57,0.00,,,0.00,0.000000,,2013-07-29 07:33:00,
2013-07-29 01:43:00,65.0,49.0,-100.00,SE,136,9.0,22.0,57,0.00,,,0.00,0.000000,,2013-07-29 07:43:00,
2013-07-29 01:53:00,65.0,49.0,-100.00,SE,136,9.0,22.0,57,0.00,,,0.00,0.000000,,2013-07-29 07:53:00,
2013-07-29 02:33:00,64.0,48.0,-100.00,South,170,7.0,14.0,57,0.00,,,0.00,0.000000,,2013-07-29 08:33:00,
2013-07-29 02:42:00,64.0,48.0,-100.00,South,170,7.0,14.0,57,0.00,,,0.00,0.000000,,2013-07-29 08:42:00,
2013-07-29 02:52:00,64.0,48.0,-100.00,South,170,7.0,14.0,57,0.00,,,0.00,0.000000,,2013-07-29 08:52:00,
2013-07-29 03:33:00,63.0,48.0,-100.00,SE,124,6.0,10.0,57,0.00,,,0.00,0.000000,,2013-07-29 09:33:00,
2013-07-29 03:43:00,63.0,48.0,-100.00,SE,124,6.0,10.0,57,0.00,,,0.00,0.000000,,2013-07-29 09:43:00,
2013-07-29 03:53:00,63.0,48.0,-100.00,SE,124,6.0,10.0,57,0.00,,,0.00,0.000000,,2013-07-29 09:53:00,
2013-07-29 04:37:00,59.0,50.0,-100.00,ENE,57,4.0,8.0,72,0.00,,,0.00,0.000000,,2013-07-29 10:37:00,
2013-07-29 04:47:00,59.0,50.0,-100.00,ENE,57,4.0,8.0,72,0.00,,,0.00,0.000000,,2013-07-29 10:47:00,
2013-07-29 04:53:00,59.0,50.0,-100.00,ENE,57,4.0,8.0,72,0.00,,,0.00,0.000000,,2013-07-29 10:53:00,
2013-07-29 05:35:00,59.0,51.0,-100.00,East,92,4.0,5.0,75,0.00,,,0.00,0.000000,,2013-07-29 11:35:00,
2013-07-29 05:44:00,59.0,51.0,-100.00,East,92,4.0,5.0,75,0.00,,,0.00,0.000000,,2013-07-29 11:44:00,
2013-07-29 05:55:00,59.0,51.0,-100.00,East,92,4.0,5.0,75,0.00,,,0.00,0.000000,,2013-07-29 11:55:00,
2013-07-29 06:35:00,57.0,52.0,-100.00,North,349,5.0,10.0,82,0.00,,,0.00,1.000000,,2013-07-29 12:35:00,
2013-07-29 06:44:00,57.0,52.0,-100.00,North,349,5.0,10.0,82,0.00,,,0.00,1.000000,,2013-07-29 12:44:00,
2013-07-29 06:55:00,57.0,52.0,-100.00,North,349,5.0,10.0,82,0.00,,,0.00,1.000000,,2013-07-29 12:55:00,
2013-07-29 07:36:00,59.0,54.0,-100.00,North,5,7.0,16.0,85,0.00,,,0.00,8.000000,,2013-07-29 13:36:00,
2013-07-29 07:44:00,59.0,54.0,-100.00,North,5,7.0,16.0,85,0.00,,,0.00,8.000000,,2013-07-29 13:44:00,
2013-07-29 07:54:00,59.0,54.0,-100.00,North,5,7.0,16.0,85,0.00,,,0.00,8.000000,,2013-07-29 13:54:00,
2013-07-29 08:27:00,62.0,57.0,-100.00,North,354,7.0,18.0,85,0.01,,,0.01,96.000000,,2013-07-29 14:27:00,
2013-07-29 08:35:00,62.0,57.0,-100.00,North,354,7.0,18.0,85,0.01,,,0.01,96.000000,,2013-07-29 14:35:00,
2013-07-29 08:44:00,62.0,57.0,-100.00,North,354,7.0,18.0,85,0.01,,,0.01,96.000000,,2013-07-29 14:44:00,
2013-07-29 08:55:00,62.0,57.0,-100.00,North,354,7.0,18.0,85,0.01,,,0.01,96.000000,,2013-07-29 14:55:00,
2013-07-29 09:37:00,62.0,54.0,-100.00,North,11,10.0,18.0,76,0.00,,,0.01,275.000000,,2013-07-29 15:37:00,
2013-07-29 09:44:00,62.0,54.0,-100.00,North,11,10.0,18.0,76,0.00,,,0.01,275.000000,,2013-07-29 15:44:00,
2013-07-29 09:54:00,62.0,54.0,-100.00,North,11,10.0,18.0,76,0.00,,,0.01,275.000000,,2013-07-29 15:54:00,
2013-07-29 10:37:00,62.0,53.0,-100.00,NNE,24,6.0,17.0,72,0.00,,,0.01,254.000000,,2013-07-29 16:37:00,
2013-07-29 11:40:00,65.0,51.0,-100.00,East,87,5.0,12.0,61,0.00,,,0.01,349.000000,,2013-07-29 17:40:00,
2013-07-29 11:56:00,65.0,51.0,-100.00,East,87,5.0,12.0,61,0.00,,,0.01,349.000000,,2013-07-29 17:56:00,
2013-07-29 12:35:00,71.0,53.0,-100.00,SSE,164,6.0,11.0,53,0.00,,,0.01,492.000000,,2013-07-29 18:35:00,
2013-07-29 12:45:00,71.0,53.0,-100.00,SSE,164,6.0,11.0,53,0.00,,,0.01,492.000000,,2013-07-29 18:45:00,
2013-07-29 12:55:00,71.0,53.0,-100.00,SSE,164,6.0,11.0,53,0.00,,,0.01,492.000000,,2013-07-29 18:55:00,
2013-07-29 13:36:00,74.0,52.0,-100.00,SSE,147,7.0,17.0,47,0.00,,,0.01,732.000000,,2013-07-29 19:36:00,
2013-07-29 13:45:00,74.0,52.0,-100.00,SSE,147,7.0,17.0,47,0.00,,,0.01,732.000000,,2013-07-29 19:45:00,
2013-07-29 13:53:00,74.0,52.0,-100.00,SSE,147,7.0,17.0,47,0.00,,,0.01,732.000000,,2013-07-29 19:53:00,
2013-07-29 14:35:00,77.0,52.0,-100.00,NNW,327,6.0,11.0,42,0.00,,,0.01,861.000000,,2013-07-29 20:35:00,
2013-07-29 14:47:00,77.0,52.0,-100.00,NNW,327,6.0,11.0,42,0.00,,,0.01,861.000000,,2013-07-29 20:47:00,
2013-07-29 14:56:00,77.0,52.0,-100.00,NNW,327,6.0,11.0,42,0.00,,,0.01,861.000000,,2013-07-29 20:56:00,
2013-07-29 15:47:00,79.0,52.0,-100.00,NW,315,9.0,16.0,39,0.00,,,0.01,845.000000,,2013-07-29 21:47:00,
2013-07-29 15:56:00,79.0,52.0,-100.00,NW,315,9.0,16.0,39,0.00,,,0.01,845.000000,,2013-07-29 21:56:00,
2013-07-29 16:37:00,80.0,51.0,-100.00,North,356,7.0,14.0,36,0.00,,,0.01,762.000000,,2013-07-29 22:37:00,
2013-07-29 16:44:00,80.0,51.0,-100.00,North,356,7.0,14.0,36,0.00,,,0.01,762.000000,,2013-07-29 22:44:00,
2013-07-29 16:55:00,80.0,51.0,-100.00,North,356,7.0,14.0,36,0.00,,,0.01,762.000000,,2013-07-29 22:55:00,
2013-07-29 17:34:00,79.0,50.0,-100.00,NNE,31,9.0,16.0,37,0.00,,,0.01,610.000000,,2013-07-29 23:34:00,
2013-07-29 17:44:00,79.0,50.0,-100.00,NNE,31,9.0,16.0,37,0.00,,,0.01,610.000000,,2013-07-29 23:44:00,
2013-07-29 17:54:00,79.0,50.0,-100.00,NNE,31,9.0,16.0,37,0.00,,,0.01,610.000000,,2013-07-29 23:54:00,
2013-07-29 18:34:00,79.0,51.0,-100.00,ENE,58,8.0,15.0,38,0.00,,,0.01,445.000000,,2013-07-30 00:34:00,
2013-07-29 18:54:00,79.0,51.0,-100.00,ENE,58,8.0,15.0,38,0.00,,,0.01,445.000000,,2013-07-30 00:54:00,
2013-07-29 19:36:00,76.0,50.0,-100.00,ENE,63,8.0,15.0,40,0.00,,,0.01,217.000000,,2013-07-30 01:36:00,
2013-07-29 19:44:00,76.0,50.0,-100.00,ENE,63,8.0,15.0,40,0.00,,,0.01,217.000000,,2013-07-30 01:44:00,
2013-07-29 19:55:00,76.0,50.0,-100.00,ENE,63,8.0,15.0,40,0.00,,,0.01,217.000000,,2013-07-30 01:55:00,
2013-07-29 20:45:00,75.0,51.0,-100.00,ENE,74,8.0,14.0,43,0.00,,,0.01,58.000000,,2013-07-30 02:45:00,
2013-07-29 20:54:00,75.0,51.0,-100.00,ENE,74,8.0,14.0,43,0.00,,,0.01,58.000000,,2013-07-30 02:54:00,
2013-07-29 21:34:00,72.0,48.0,-100.00,ENE,78,9.0,17.0,43,0.00,,,0.01,22.000000,,2013-07-30 03:34:00,
2013-07-29 21:44:00,72.0,48.0,-100.00,ENE,78,9.0,17.0,43,0.00,,,0.01,22.000000,,2013-07-30 03:44:00,
2013-07-29 21:53:00,72.0,48.0,-100.00,ENE,78,9.0,17.0,43,0.00,,,0.01,22.000000,,2013-07-30 03:53:00,
2013-07-29 22:33:00,70.0,49.0,-100.00,East,91,13.0,18.0,47,0.00,,,0.01,0.000000,,2013-07-30 04:33:00,
2013-07-29 22:43:00,70.0,49.0,-100.00,East,91,13.0,18.0,47,0.00,,,0.01,0.000000,,2013-07-30 04:43:00,
2013-07-29 22:53:00,70.0,49.0,-100.00,East,91,13.0,18.0,47,0.00,,,0.01,0.000000,,2013-07-30 04:53:00,
2013-07-29 23:33:00,69.0,49.0,-100.00,East,100,10.0,18.0,49,0.00,,,0.01,0.000000,,2013-07-30 05:33:00,
2013-07-29 23:45:00,69.0,49.0,-100.00,East,100,10.0,18.0,49,0.00,,,0.01,0.000000,,2013-07-30 05:45:00,
2013-07-29 23:52:00,69.0,49.0,-100.00,East,100,10.0,18.0,49,0.00,,,0.01,0.000000,,2013-07-30 05:52:00,